• In Russia
  • List of Countries
  • For 7 days
  • Water Temperature
  • Satellite Maps
  • Weather Map
  • Weather Widgets
  • user-avatar
    Login

    Hourly Weather Cordoba

    Today, 24 March, Sunday

    Time Temperature Precipitation Wind Pressure Humidity
    00:00 +12°C° 0 mm 2 mps 756 mmHg 69%
    01:00 +10°C° 0 mm 2 mps 756 mmHg 72%
    02:00 +10°C° 0 mm 2 mps 756 mmHg 75%
    03:00 +9°C° 0 mm 2 mps 755 mmHg 78%
    04:00 +9°C° 0 mm 2 mps 755 mmHg 79%
    05:00 +9°C° 0 mm 2 mps 755 mmHg 80%
    06:00 +8°C° 0 mm 2 mps 755 mmHg 82%
    07:00 +12°C° 0 mm 2 mps 755 mmHg 74%
    08:00 +13°C° 0 mm 3 mps 756 mmHg 67%
    09:00 +16°C° 0 mm 3 mps 756 mmHg 60%
    10:00 +17°C° 0 mm 3 mps 755 mmHg 55%
    11:00 +19°C° 0 mm 3 mps 755 mmHg 49%
    12:00 +21°C° 0 mm 3 mps 755 mmHg 44%
    13:00 +21°C° 0 mm 3 mps 755 mmHg 44%
    14:00 +21°C° 0 mm 3 mps 755 mmHg 45%
    15:00 +21°C° 0 mm 3 mps 754 mmHg 45%
    16:00 +20°C° 0 mm 2 mps 754 mmHg 50%
    17:00 +19°C° 0 mm 2 mps 754 mmHg 56%
    18:00 +19°C° 0 mm 1 mps 754 mmHg 61%
    19:00 +16°C° 0 mm 1 mps 755 mmHg 64%
    20:00 +15°C° 0 mm 1 mps 755 mmHg 66%
    21:00 +14°C° 0 mm 1 mps 755 mmHg 68%
    22:00 +13°C° 0 mm 1 mps 755 mmHg 70%
    23:00 +13°C° 0 mm 1 mps 755 mmHg 72%

    Tomorrow, 25 March, Monday

    Time Temperature Precipitation Wind Pressure Humidity
    00:00 +12°C° 0 mm 1 mps 756 mmHg 73%
    01:00 +12°C° 0 mm 1 mps 755 mmHg 75%
    02:00 +12°C° 0 mm 1 mps 755 mmHg 76%
    03:00 +11°C° 0 mm 1 mps 755 mmHg 78%
    04:00 +11°C° 0 mm 1 mps 755 mmHg 78%
    05:00 +11°C° 0 mm 1 mps 755 mmHg 78%
    06:00 +9°C° 0 mm 2 mps 755 mmHg 78%
    07:00 +13°C° 0 mm 2 mps 755 mmHg 69%
    08:00 +15°C° 0 mm 2 mps 755 mmHg 61%
    09:00 +17°C° 0 mm 3 mps 754 mmHg 53%
    10:00 +19°C° 0 mm 3 mps 754 mmHg 48%
    11:00 +21°C° 0 mm 3 mps 754 mmHg 43%
    12:00 +22°C° 0 mm 4 mps 753 mmHg 38%
    13:00 +24°C° 0 mm 3 mps 753 mmHg 37%
    14:00 +25°C° 0 mm 3 mps 752 mmHg 35%
    15:00 +25°C° 0 mm 3 mps 752 mmHg 34%
    16:00 +24°C° 0 mm 3 mps 751 mmHg 39%
    17:00 +23°C° 0 mm 2 mps 751 mmHg 45%
    18:00 +21°C° 0 mm 2 mps 751 mmHg 50%
    19:00 +19°C° 0 mm 2 mps 751 mmHg 51%
    20:00 +18°C° 0 mm 1 mps 751 mmHg 52%
    21:00 +16°C° 0 mm 1 mps 752 mmHg 53%
    22:00 +15°C° 0 mm 1 mps 752 mmHg 54%
    23:00 +14°C° 0 mm 1 mps 752 mmHg 55%

    Day after tomorrow, 26 March, Tuesday

    Time Temperature Precipitation Wind Pressure Humidity
    00:00 +14°C° 0 mm 1 mps 751 mmHg 56%
    01:00 +13°C° 0 mm 1 mps 751 mmHg 56%
    02:00 +13°C° 0 mm 1 mps 751 mmHg 56%
    03:00 +13°C° 0 mm 1 mps 751 mmHg 56%
    04:00 +12°C° 0 mm 2 mps 751 mmHg 55%
    05:00 +12°C° 0 mm 2 mps 751 mmHg 54%
    06:00 +12°C° 0 mm 2 mps 750 mmHg 53%
    07:00 +13°C° 0 mm 3 mps 750 mmHg 50%
    08:00 +16°C° 0 mm 3 mps 750 mmHg 46%
    09:00 +18°C° 0 mm 4 mps 750 mmHg 42%
    10:00 +20°C° 0 mm 4 mps 750 mmHg 38%
    11:00 +23°C° 0 mm 4 mps 750 mmHg 35%
    12:00 +26°C° 0 mm 4 mps 750 mmHg 31%
    13:00 +26°C° 0 mm 4 mps 750 mmHg 30%
    14:00 +27°C° 0 mm 4 mps 749 mmHg 29%
    15:00 +28°C° 0 mm 4 mps 749 mmHg 28%
    16:00 +26°C° 0 mm 4 mps 749 mmHg 35%
    17:00 +23°C° 0 mm 4 mps 749 mmHg 41%
    18:00 +21°C° 0 mm 4 mps 749 mmHg 48%
    19:00 +20°C° 0 mm 4 mps 749 mmHg 49%
    20:00 +19°C° 0 mm 5 mps 750 mmHg 49%
    21:00 +16°C° 0 mm 5 mps 751 mmHg 50%
    22:00 +15°C° 0 mm 5 mps 751 mmHg 53%
    23:00 +15°C° 0 mm 5 mps 751 mmHg 55%

    27 March, Wednesday

    Time Temperature Precipitation Wind Pressure Humidity
    00:00 +14°C° 0 mm 6 mps 752 mmHg 58%
    01:00 +13°C° 0 mm 6 mps 752 mmHg 54%
    02:00 +11°C° 0 mm 6 mps 752 mmHg 50%
    03:00 +11°C° 0 mm 6 mps 752 mmHg 46%
    04:00 +10°C° 0 mm 5 mps 752 mmHg 47%
    05:00 +10°C° 0 mm 5 mps 752 mmHg 49%
    06:00 +9°C° 0 mm 5 mps 752 mmHg 50%
    07:00 +12°C° 0 mm 5 mps 753 mmHg 48%
    08:00 +13°C° 0 mm 5 mps 753 mmHg 46%
    09:00 +15°C° 0 mm 5 mps 754 mmHg 43%
    10:00 +16°C° 0 mm 5 mps 754 mmHg 40%
    11:00 +19°C° 0 mm 5 mps 754 mmHg 37%
    12:00 +20°C° 0 mm 5 mps 754 mmHg 33%
    13:00 +21°C° 0 mm 4 mps 754 mmHg 31%
    14:00 +22°C° 0 mm 4 mps 753 mmHg 30%
    15:00 +22°C° 0 mm 4 mps 753 mmHg 28%
    16:00 +21°C° 0 mm 3 mps 753 mmHg 33%
    17:00 +20°C° 0 mm 3 mps 754 mmHg 37%
    18:00 +18°C° 0 mm 3 mps 754 mmHg 42%
    19:00 +16°C° 0 mm 2 mps 755 mmHg 47%
    20:00 +14°C° 0 mm 2 mps 756 mmHg 52%
    21:00 +12°C° 0 mm 1 mps 757 mmHg 57%
    22:00 +12°C° 0 mm 1 mps 757 mmHg 60%
    23:00 +11°C° 0 mm 1 mps 757 mmHg 63%

    28 March, Thursday

    Time Temperature Precipitation Wind Pressure Humidity
    00:00 +10°C° 0 mm 1 mps 757 mmHg 66%
    01:00 +10°C° 0 mm 1 mps 757 mmHg 66%
    02:00 +9°C° 0 mm 1 mps 758 mmHg 66%
    03:00 +8°C° 0 mm 2 mps 758 mmHg 66%
    04:00 +7°C° 0 mm 2 mps 758 mmHg 67%
    05:00 +7°C° 0 mm 2 mps 758 mmHg 68%
    06:00 +6°C° 0 mm 2 mps 758 mmHg 69%
    07:00 +8°C° 0 mm 2 mps 758 mmHg 63%
    08:00 +11°C° 0 mm 3 mps 758 mmHg 56%
    09:00 +13°C° 0 mm 3 mps 758 mmHg 50%
    10:00 +16°C° 0 mm 3 mps 758 mmHg 44%
    11:00 +18°C° 0 mm 3 mps 758 mmHg 38%
    12:00 +19°C° 0 mm 3 mps 757 mmHg 32%
    13:00 +20°C° 0 mm 3 mps 757 mmHg 31%
    14:00 +21°C° 0 mm 3 mps 756 mmHg 30%
    15:00 +21°C° 0 mm 2 mps 756 mmHg 29%
    16:00 +20°C° 0 mm 2 mps 756 mmHg 35%
    17:00 +19°C° 0 mm 2 mps 756 mmHg 40%
    18:00 +18°C° 0 mm 2 mps 756 mmHg 46%
    19:00 +16°C° 0 mm 1 mps 756 mmHg 55%
    20:00 +13°C° 0 mm 1 mps 757 mmHg 64%
    21:00 +11°C° 0 mm 1 mps 758 mmHg 74%
    22:00 +11°C° 0 mm 1 mps 758 mmHg 75%
    23:00 +10°C° 0 mm 1 mps 758 mmHg 77%

    29 March, Friday

    Time Temperature Precipitation Wind Pressure Humidity
    00:00 +10°C° 0 mm 1 mps 758 mmHg 79%
    01:00 +10°C° 0 mm 1 mps 758 mmHg 78%
    02:00 +9°C° 0 mm 1 mps 757 mmHg 77%
    03:00 +9°C° 0 mm 1 mps 757 mmHg 76%
    04:00 +8°C° 0 mm 1 mps 757 mmHg 75%
    05:00 +8°C° 0 mm 1 mps 757 mmHg 74%
    06:00 +8°C° 0 mm 1 mps 757 mmHg 73%
    07:00 +9°C° 0 mm 2 mps 757 mmHg 66%
    08:00 +12°C° 0 mm 2 mps 757 mmHg 58%
    09:00 +15°C° 0 mm 2 mps 757 mmHg 51%
    10:00 +16°C° 0 mm 2 mps 757 mmHg 47%
    11:00 +18°C° 0 mm 2 mps 757 mmHg 42%
    12:00 +20°C° 0 mm 2 mps 756 mmHg 37%
    13:00 +21°C° 0 mm 2 mps 756 mmHg 37%
    14:00 +21°C° 0 mm 2 mps 755 mmHg 37%
    15:00 +23°C° 0 mm 1 mps 754 mmHg 36%
    16:00 +21°C° 0 mm 2 mps 754 mmHg 43%
    17:00 +20°C° 0 mm 2 mps 754 mmHg 50%
    18:00 +19°C° 0 mm 2 mps 754 mmHg 56%
    19:00 +17°C° 0 mm 2 mps 755 mmHg 64%
    20:00 +14°C° 0 mm 1 mps 755 mmHg 72%
    21:00 +12°C° 0 mm 1 mps 756 mmHg 79%
    22:00 +12°C° 0 mm 1 mps 756 mmHg 82%
    23:00 +11°C° 0 mm 1 mps 756 mmHg 84%
    Show more